Fremont, MI

5:59 AM EST on November 12, 2019 (GMT -0500)
Fremont

Weather History for KFFX - May, 2019

Change the Weather History Date:

Monday, May 20, 2019

  Actual Average (WUND) Record (WUND)
Temperature  
Mean Temperature 49 °F -  
Max Temperature 55 °F - - (-1)
Min Temperature 43 °F - - (-1)
Degree Days  
Heating Degree Days 16    
Moisture  
Dew Point 40 °F    
Average Humidity 77    
Maximum Humidity 97    
Minimum Humidity 49    
Precipitation  
Precipitation 0.00 in - - ()
Sea Level Pressure  
Sea Level Pressure 29.95 in    
Wind  
Wind Speed 10 mph ()    
Max Wind Speed 18 mph    
Max Gust Speed 24 mph    
Visibility 9.5 miles    
Events Rain    
Averages and records for this station are not official NWS values.
T = Trace of Precipitation, MM = Missing Value Source: Averaged Metar Reports

Daily Weather History Graph

Daily Weather History Graph

Search for Another Location

Airport or City:

Astronomy

May. 20, 2019 Rise Set
Actual Time 6:14 AM EDT 9:06 PM EDT
Civil Twilight 5:41 AM EDT 9:40 PM EDT
Nautical Twilight 4:58 AM EDT 10:23 PM EDT
Astronomical Twilight 4:09 AM EDT 11:12 PM EDT
Moon 11:08 PM EDT (5/20) 7:42 AM EDT (5/20)
Length of Visible Light 15h 59m
Length of Day
14h 52m
Waning Gibbous, 96% of the Moon is Illuminated
May 20
Waning Gibbous
May 26
Last Quarter
Jun 3
New
Jun 10
First Quarter
Jun 17
Full

Hourly Weather History & Observations

Time (EDT) Temp. Windchill Dew Point Humidity Pressure Visibility Wind Dir Wind Speed Gust Speed Precip Events Conditions
12:15 AM 52.7 °F - 46.4 °F 79% 29.71 in 10.0 mi West 10.4 mph - N/A   Overcast
12:35 AM 52.2 °F - 46.6 °F 81% 29.73 in 10.0 mi West 10.4 mph 17.3 mph N/A   Overcast
12:56 AM 50.4 °F - 48.2 °F 92% 29.73 in 10.0 mi WNW 11.5 mph - N/A   Mostly Cloudy
1:16 AM 49.6 °F - 47.7 °F 93% 29.73 in 10.0 mi WNW 9.2 mph - N/A   Scattered Clouds
1:35 AM 49.1 °F - 47.1 °F 93% 29.73 in 10.0 mi West 9.2 mph - N/A   Scattered Clouds
1:56 AM 49.1 °F - 47.3 °F 93% 29.74 in 10.0 mi WNW 6.9 mph - N/A   Mostly Cloudy
2:16 AM 48.4 °F - 46.6 °F 93% 29.74 in 10.0 mi WNW 9.2 mph - N/A   Overcast
2:35 AM 47.8 °F - 46.4 °F 95% 29.75 in 10.0 mi WNW 12.7 mph 18.4 mph N/A   Overcast
2:56 AM 46.8 °F - 44.6 °F 92% 29.76 in 10.0 mi WNW 11.5 mph - N/A   Overcast
3:16 AM 46.6 °F - 44.8 °F 93% 29.77 in 10.0 mi West 11.5 mph 18.4 mph N/A   Overcast
3:35 AM 46.6 °F - 44.8 °F 93% 29.78 in 10.0 mi West 12.7 mph 18.4 mph N/A   Overcast
3:55 AM 46.4 °F 40.7 °F 44.2 °F 92% 29.78 in 10.0 mi West 12.7 mph - N/A   Overcast
4:16 AM 45.7 °F 41.0 °F 43.3 °F 92% 29.79 in 10.0 mi WNW 9.2 mph 19.6 mph N/A   Overcast
4:35 AM 45.0 °F 38.5 °F 42.4 °F 91% 29.79 in 10.0 mi WNW 13.8 mph 17.3 mph N/A   Overcast
4:55 AM 44.6 °F 40.2 °F 41.9 °F 90% 29.80 in 10.0 mi West 8.1 mph - N/A   Mostly Cloudy
5:16 AM 44.6 °F 39.7 °F 42.1 °F 91% 29.80 in 10.0 mi West 9.2 mph - N/A   Overcast
5:36 AM 45.0 °F 39.7 °F 42.6 °F 91% 29.80 in 10.0 mi WNW 10.4 mph - N/A   Overcast
5:55 AM 44.6 °F 38.4 °F 42.8 °F 93% 29.81 in 7.0 mi West 12.7 mph - N/A   Overcast
6:15 AM 44.6 °F 39.7 °F 42.3 °F 91% 29.81 in 10.0 mi West 9.2 mph - N/A   Overcast
6:36 AM 44.6 °F 38.1 °F 42.1 °F 91% 29.82 in 10.0 mi WNW 13.8 mph - N/A   Overcast
6:55 AM 44.6 °F 38.1 °F 41.4 °F 88% 29.83 in 10.0 mi West 13.8 mph 18.4 mph N/A   Overcast
7:15 AM 44.6 °F 37.8 °F 40.8 °F 87% 29.84 in 10.0 mi WNW 15.0 mph 19.6 mph N/A   Overcast
7:36 AM 43.9 °F 37.5 °F 42.3 °F 94% 29.85 in 5.0 mi WNW 12.7 mph 21.9 mph N/A   Light Drizzle
7:55 AM 43.7 °F 37.7 °F 42.8 °F 97% 29.86 in 5.0 mi WNW 11.5 mph 18.4 mph N/A   Overcast
8:15 AM 43.7 °F 38.1 °F 42.8 °F 97% 29.87 in 2.5 mi WNW 10.4 mph 17.3 mph N/A Rain Light Rain
8:35 AM 43.7 °F 37.7 °F 43.0 °F 97% 29.87 in 2.5 mi WNW 11.5 mph - N/A   Overcast
8:56 AM 44.1 °F 37.1 °F 43.0 °F 96% 29.88 in 7.0 mi WNW 15.0 mph 19.6 mph N/A   Overcast
9:16 AM 44.1 °F 37.1 °F 42.6 °F 95% 29.89 in 7.0 mi WNW 15.0 mph 20.7 mph N/A   Overcast
9:35 AM 44.4 °F 37.5 °F 42.4 °F 93% 29.91 in 10.0 mi NW 15.0 mph 20.7 mph N/A   Overcast
9:56 AM 44.8 °F 37.7 °F 41.9 °F 90% 29.92 in 10.0 mi WNW 16.1 mph 20.7 mph N/A   Overcast
10:16 AM 45.3 °F 37.8 °F 42.4 °F 90% 29.93 in 10.0 mi NW 18.4 mph 24.2 mph N/A   Overcast
10:36 AM 44.8 °F 37.7 °F 42.6 °F 92% 29.94 in 5.0 mi NW 16.1 mph 24.2 mph N/A   Overcast
10:55 AM 45.7 °F 39.8 °F 41.0 °F 84% 29.95 in 10.0 mi NW 12.7 mph 20.7 mph N/A   Overcast
11:16 AM 46.2 °F 39.8 °F 40.1 °F 79% 29.96 in 10.0 mi NW 15.0 mph 20.7 mph N/A   Overcast
11:35 AM 46.4 °F 40.7 °F 39.7 °F 78% 29.97 in 10.0 mi NNW 12.7 mph 20.7 mph N/A   Overcast
11:55 AM 45.9 °F 39.7 °F 39.0 °F 77% 29.98 in 10.0 mi NNW 13.8 mph 21.9 mph N/A   Overcast
12:16 PM 47.1 °F - 39.7 °F 76% 29.98 in 10.0 mi WNW 13.8 mph 20.7 mph N/A   Overcast
12:35 PM 46.0 °F 40.2 °F 39.6 °F 78% 29.99 in 10.0 mi NW 12.7 mph - N/A   Overcast
12:55 PM 47.3 °F - 38.3 °F 71% 29.99 in 10.0 mi NNW 16.1 mph 21.9 mph N/A   Overcast
1:16 PM 47.3 °F - 38.5 °F 71% 30.00 in 10.0 mi NNW 12.7 mph 19.6 mph N/A   Overcast
1:35 PM 46.9 °F - 39.0 °F 74% 30.02 in 10.0 mi NNW 12.7 mph 17.3 mph N/A   Overcast
1:55 PM 48.0 °F - 38.7 °F 70% 30.04 in 10.0 mi NW 15.0 mph - N/A   Overcast
2:16 PM 48.0 °F - 38.8 °F 71% 30.03 in 10.0 mi NNW 11.5 mph 17.3 mph N/A   Overcast
2:36 PM 48.2 °F - 38.5 °F 69% 30.04 in 10.0 mi NNW 12.7 mph 18.4 mph N/A   Overcast
2:55 PM 48.6 °F - 39.2 °F 70% 30.04 in 10.0 mi NNW 10.4 mph 17.3 mph N/A   Overcast
3:16 PM 49.5 °F - 39.4 °F 68% 30.05 in 10.0 mi North 11.5 mph 17.3 mph N/A   Overcast
3:36 PM 50.0 °F - 39.0 °F 66% 30.05 in 10.0 mi North 13.8 mph - N/A   Overcast
3:55 PM 49.6 °F - 39.0 °F 67% 30.05 in 10.0 mi North 11.5 mph 18.4 mph N/A   Overcast
4:16 PM 51.6 °F - 39.9 °F 64% 30.06 in 10.0 mi North 11.5 mph - N/A   Overcast
4:36 PM 52.9 °F - 39.6 °F 61% 30.06 in 10.0 mi North 15.0 mph 18.4 mph N/A   Overcast
4:56 PM 53.4 °F - 38.5 °F 57% 30.07 in 10.0 mi NNW 11.5 mph 19.6 mph N/A   Overcast
5:15 PM 52.3 °F - 37.8 °F 58% 30.06 in 10.0 mi North 11.5 mph - N/A   Overcast
5:36 PM 52.5 °F - 37.4 °F 56% 30.07 in 10.0 mi North 15.0 mph 18.4 mph N/A   Overcast
5:56 PM 53.2 °F - 37.6 °F 55% 30.08 in 10.0 mi NNW 9.2 mph 16.1 mph N/A   Overcast
6:15 PM 54.5 °F - 37.9 °F 54% 30.08 in 10.0 mi NNE 9.2 mph - N/A   Overcast
6:36 PM 55.4 °F - 36.3 °F 49% 30.08 in 10.0 mi North 9.2 mph - N/A   Overcast
6:56 PM 55.6 °F - 36.7 °F 49% 30.09 in 10.0 mi NNW 12.7 mph - N/A   Overcast
7:15 PM 54.9 °F - 36.3 °F 50% 30.10 in 10.0 mi NNW 9.2 mph - N/A   Mostly Cloudy
7:36 PM 54.7 °F - 35.8 °F 49% 30.11 in 10.0 mi North 12.7 mph - N/A   Mostly Cloudy
7:56 PM 53.6 °F - 35.8 °F 51% 30.12 in 10.0 mi NNW 11.5 mph - N/A   Mostly Cloudy
8:15 PM 52.7 °F - 36.5 °F 54% 30.13 in 10.0 mi NNW 10.4 mph - N/A   Scattered Clouds
8:35 PM 51.3 °F - 36.1 °F 56% 30.12 in 10.0 mi NNW 8.1 mph - N/A   Clear
8:55 PM 49.6 °F - 36.5 °F 61% 30.12 in 10.0 mi NNW 6.9 mph - N/A   Clear
9:16 PM 48.6 °F - 36.7 °F 64% 30.12 in 10.0 mi NNW 5.8 mph - N/A   Clear
9:35 PM 48.0 °F - 36.7 °F 65% 30.11 in 10.0 mi North 5.8 mph - N/A   Clear
9:56 PM 47.3 °F - 36.5 °F 66% 30.12 in 10.0 mi North 4.6 mph - N/A   Clear
10:16 PM 47.5 °F - 36.0 °F 64% 30.13 in 10.0 mi NNE 3.5 mph - N/A   Clear
10:35 PM 47.7 °F - 35.6 °F 63% 30.13 in 10.0 mi NNE 4.6 mph - N/A   Clear
10:55 PM 46.8 °F - 35.6 °F 65% 30.14 in 10.0 mi North 3.5 mph - N/A   Clear
11:16 PM 45.5 °F - 35.6 °F 68% 30.14 in 10.0 mi Calm Calm - N/A   Clear
11:35 PM 44.8 °F - 36.5 °F 73% 30.15 in 10.0 mi Calm Calm - N/A   Clear
11:55 PM 44.6 °F - 36.0 °F 72% 30.15 in 10.0 mi Calm Calm - N/A   Clear